Pineglen — VOGX — position and weather

sailwx.info

Track history (hours):
 
Tides and Currents Weather Stations Pressure Air Temp Water Temp Dewpoint Dewpoint Depression Visibility Wind Speed Wind Dir Waves Ship Positions

Pineglen

Last reported at 2014-Nov-21 15:34 UTC. Time now 2014-Nov-24 14:00 UTC.
Position N 44°01' W 076°29'.

Length 220 m; draft 6.5 m.

Type: Cargo ship. MMSI: 316001839.

Date/timePositionNaut miles runAvg speedWind from/ knotsBaromVisibWave heightAir tempDewpointWater temp
2014-Nov-21 15:34N 44°01' W 076°29'0 0.0
2014-Nov-21 14:34N 44°01' W 076°29'5 5.5
2014-Nov-21 13:34N 44°05' W 076°25'3 2.6
2014-Nov-21 12:34N 44°07' W 076°22'8 8.1
2014-Nov-21 11:33N 44°12' W 076°14'14 9.4
2014-Nov-21 10:05N 44°19' W 075°57'5 8.5
2014-Nov-21 09:33N 44°23' W 075°53'1111.0
2014-Nov-21 08:33N 44°32' W 075°45'77 3.1
2014-Nov-20 07:30N 45°14' W 074°13'8 8.6
2014-Nov-20 06:34N 45°14' W 074°02'6 6.4
2014-Nov-20 05:33N 45°18' W 073°56'1 0.8
2014-Nov-20 04:33N 45°19' W 073°55'1 0.8
2014-Nov-20 03:33N 45°20' W 073°55'9 8.9
2014-Nov-20 02:33N 45°24' W 073°44'6 5.7
2014-Nov-20 01:33N 45°24' W 073°36'2 1.7
2014-Nov-20 00:33N 45°24' W 073°33'5 4.6
2014-Nov-19 23:27N 45°29' W 073°31'4 1.5
2014-Nov-19 20:33N 45°34' W 073°31'0 0.0
2014-Nov-19 19:33N 45°34' W 073°31'0 0.0
2014-Nov-19 18:33N 45°34' W 073°31'0 0.0
2014-Nov-19 17:33N 45°34' W 073°31'0 0.0
2014-Nov-19 16:26N 45°34' W 073°31'0 0.0
2014-Nov-19 15:26N 45°34' W 073°31'0 0.0
2014-Nov-19 14:33N 45°34' W 073°31'0 0.0
2014-Nov-19 13:33N 45°34' W 073°31'0 0.0
2014-Nov-19 12:33N 45°34' W 073°31'0 0.0
2014-Nov-19 11:33N 45°34' W 073°31'0 0.0
2014-Nov-19 10:32N 45°34' W 073°31'0 0.0
2014-Nov-19 09:33N 45°34' W 073°31'0 0.0
2014-Nov-19 08:33N 45°34' W 073°31'0 0.0
2014-Nov-19 07:32N 45°34' W 073°31'0 0.0
2014-Nov-19 06:05N 45°34' W 073°31'0 0.0
2014-Nov-19 05:31N 45°34' W 073°31'0 0.0
2014-Nov-19 04:33N 45°34' W 073°31'0 0.0
2014-Nov-19 00:28N 45°34' W 073°31'0 0.0
2014-Nov-18 23:31N 45°34' W 073°31'0 0.0
2014-Nov-18 22:34N 45°34' W 073°31'0 0.0
2014-Nov-18 21:34N 45°34' W 073°31'0 0.0
2014-Nov-18 20:33N 45°34' W 073°31'0 0.0
2014-Nov-18 19:33N 45°34' W 073°31'0 0.0
2014-Nov-18 18:33N 45°34' W 073°31'0 0.0
2014-Nov-18 17:33N 45°34' W 073°31'0 0.0
2014-Nov-18 16:33N 45°34' W 073°31'0 0.0
2014-Nov-18 15:19N 45°34' W 073°31'0 0.0
2014-Nov-18 14:33N 45°34' W 073°31'0 0.0
2014-Nov-18 13:33N 45°34' W 073°31'0 0.0
2014-Nov-18 12:33N 45°34' W 073°31'0 0.0
2014-Nov-18 11:33N 45°34' W 073°31'0 0.0
2014-Nov-18 10:33N 45°34' W 073°31'0 0.0
2014-Nov-18 09:33N 45°34' W 073°31'0 0.0
2014-Nov-18 08:33N 45°34' W 073°31'0 0.0
2014-Nov-18 07:34N 45°34' W 073°31'0 0.0
2014-Nov-18 06:33N 45°34' W 073°31'0 0.0
2014-Nov-18 05:34N 45°34' W 073°31'0 0.0
2014-Nov-18 04:33N 45°34' W 073°31'0 0.0
2014-Nov-18 03:33N 45°34' W 073°31'0 0.0
2014-Nov-18 02:33N 45°34' W 073°31'0 0.0
2014-Nov-18 01:34N 45°34' W 073°31'0 0.0
2014-Nov-18 00:33N 45°34' W 073°31'0 0.0
2014-Nov-17 23:34N 45°34' W 073°31'0 0.0
2014-Nov-17 22:33N 45°34' W 073°31'0 0.0
2014-Nov-17 21:33N 45°34' W 073°31'0 0.0
2014-Nov-17 20:34N 45°34' W 073°31'4 2.0
2014-Nov-17 18:33N 45°30' W 073°31'1 1.4
2014-Nov-17 17:33N 45°28' W 073°30'4 4.3
2014-Nov-17 16:33N 45°24' W 073°33'1 1.1
2014-Nov-17 15:33N 45°24' W 073°35'4 3.9
2014-Nov-17 14:33N 45°25' W 073°40'8 8.3
2014-Nov-17 13:33N 45°21' W 073°51'4 3.9
2014-Nov-17 12:33N 45°19' W 073°55'1 0.9
2014-Nov-17 11:33N 45°18' W 073°56'6 6.0
2014-Nov-17 10:33N 45°13' W 074°02'1010.0
2014-Nov-17 09:33N 45°13' W 074°16'1111.1
2014-Nov-17 08:34N 45°07' W 074°28'73 6.6
2014-Nov-16 21:34N 44°24' W 075°51'  
Track history (hours):
 
Tides and Currents Weather Stations Pressure Air Temp Water Temp Dewpoint Dewpoint Depression Visibility Wind Speed Wind Dir Waves Ship Positions

Pineglen

Last reported at 2014-Nov-21 15:34 UTC. Time now 2014-Nov-24 14:00 UTC.
Position N 44°01' W 076°29'.

Length 220 m; draft 6.5 m.

Type: Cargo ship. MMSI: 316001839.

Date/timePositionNaut miles runAvg speedWind from/ knotsBaromVisibWave heightAir tempDewpointWater temp
2014-Nov-21 15:34N 44°01' W 076°29'0 0.0
2014-Nov-21 14:34N 44°01' W 076°29'5 5.5
2014-Nov-21 13:34N 44°05' W 076°25'3 2.6
2014-Nov-21 12:34N 44°07' W 076°22'8 8.1
2014-Nov-21 11:33N 44°12' W 076°14'14 9.4
2014-Nov-21 10:05N 44°19' W 075°57'5 8.5
2014-Nov-21 09:33N 44°23' W 075°53'1111.0
2014-Nov-21 08:33N 44°32' W 075°45'77 3.1
2014-Nov-20 07:30N 45°14' W 074°13'8 8.6
2014-Nov-20 06:34N 45°14' W 074°02'6 6.4
2014-Nov-20 05:33N 45°18' W 073°56'1 0.8
2014-Nov-20 04:33N 45°19' W 073°55'1 0.8
2014-Nov-20 03:33N 45°20' W 073°55'9 8.9
2014-Nov-20 02:33N 45°24' W 073°44'6 5.7
2014-Nov-20 01:33N 45°24' W 073°36'2 1.7
2014-Nov-20 00:33N 45°24' W 073°33'5 4.6
2014-Nov-19 23:27N 45°29' W 073°31'4 1.5
2014-Nov-19 20:33N 45°34' W 073°31'0 0.0
2014-Nov-19 19:33N 45°34' W 073°31'0 0.0
2014-Nov-19 18:33N 45°34' W 073°31'0 0.0
2014-Nov-19 17:33N 45°34' W 073°31'0 0.0
2014-Nov-19 16:26N 45°34' W 073°31'0 0.0
2014-Nov-19 15:26N 45°34' W 073°31'0 0.0
2014-Nov-19 14:33N 45°34' W 073°31'0 0.0
2014-Nov-19 13:33N 45°34' W 073°31'0 0.0
2014-Nov-19 12:33N 45°34' W 073°31'0 0.0
2014-Nov-19 11:33N 45°34' W 073°31'0 0.0
2014-Nov-19 10:32N 45°34' W 073°31'0 0.0
2014-Nov-19 09:33N 45°34' W 073°31'0 0.0
2014-Nov-19 08:33N 45°34' W 073°31'0 0.0
2014-Nov-19 07:32N 45°34' W 073°31'0 0.0
2014-Nov-19 06:05N 45°34' W 073°31'0 0.0
2014-Nov-19 05:31N 45°34' W 073°31'0 0.0
2014-Nov-19 04:33N 45°34' W 073°31'0 0.0
2014-Nov-19 00:28N 45°34' W 073°31'0 0.0
2014-Nov-18 23:31N 45°34' W 073°31'0 0.0
2014-Nov-18 22:34N 45°34' W 073°31'0 0.0
2014-Nov-18 21:34N 45°34' W 073°31'0 0.0
2014-Nov-18 20:33N 45°34' W 073°31'0 0.0
2014-Nov-18 19:33N 45°34' W 073°31'0 0.0
2014-Nov-18 18:33N 45°34' W 073°31'0 0.0
2014-Nov-18 17:33N 45°34' W 073°31'0 0.0
2014-Nov-18 16:33N 45°34' W 073°31'0 0.0
2014-Nov-18 15:19N 45°34' W 073°31'0 0.0
2014-Nov-18 14:33N 45°34' W 073°31'0 0.0
2014-Nov-18 13:33N 45°34' W 073°31'0 0.0
2014-Nov-18 12:33N 45°34' W 073°31'0 0.0
2014-Nov-18 11:33N 45°34' W 073°31'0 0.0
2014-Nov-18 10:33N 45°34' W 073°31'0 0.0
2014-Nov-18 09:33N 45°34' W 073°31'0 0.0
2014-Nov-18 08:33N 45°34' W 073°31'0 0.0
2014-Nov-18 07:34N 45°34' W 073°31'0 0.0
2014-Nov-18 06:33N 45°34' W 073°31'0 0.0
2014-Nov-18 05:34N 45°34' W 073°31'0 0.0
2014-Nov-18 04:33N 45°34' W 073°31'0 0.0
2014-Nov-18 03:33N 45°34' W 073°31'0 0.0
2014-Nov-18 02:33N 45°34' W 073°31'0 0.0
2014-Nov-18 01:34N 45°34' W 073°31'0 0.0
2014-Nov-18 00:33N 45°34' W 073°31'0 0.0
2014-Nov-17 23:34N 45°34' W 073°31'0 0.0
2014-Nov-17 22:33N 45°34' W 073°31'0 0.0
2014-Nov-17 21:33N 45°34' W 073°31'0 0.0
2014-Nov-17 20:34N 45°34' W 073°31'4 2.0
2014-Nov-17 18:33N 45°30' W 073°31'1 1.4
2014-Nov-17 17:33N 45°28' W 073°30'4 4.3
2014-Nov-17 16:33N 45°24' W 073°33'1 1.1
2014-Nov-17 15:33N 45°24' W 073°35'4 3.9
2014-Nov-17 14:33N 45°25' W 073°40'8 8.3
2014-Nov-17 13:33N 45°21' W 073°51'4 3.9
2014-Nov-17 12:33N 45°19' W 073°55'1 0.9
2014-Nov-17 11:33N 45°18' W 073°56'6 6.0
2014-Nov-17 10:33N 45°13' W 074°02'1010.0
2014-Nov-17 09:33N 45°13' W 074°16'1111.1
2014-Nov-17 08:34N 45°07' W 074°28'73 6.6
2014-Nov-16 21:34N 44°24' W 075°51'  

Dump ship's entire track history